Regional Weather Roundup
Issued by NWS

Home | Current Version | Previous Version | Graphics & Text | Print | Product List | Glossary On
Versions: 1 2 3 4 5 6 7 8 9 10 11 12 13 14 15 16 17 18 19 20 21 22 23 24 25 26 27 28 29 30 31 32 33 34 35 36 37 38 39 40 41 42 43 44 45 46 47 48 49 50
000
ASUS43 KDMX 042107
RWRIA

WEATHER ROUNDUP FOR IOWA
NATIONAL WEATHER SERVICE DES MOINES IA
400 PM CDT MON MAY 04 2015

NOTE: "FAIR" INDICATES FEW OR NO CLOUDS BELOW 12,000 FEET WITH NO
SIGNIFICANT WEATHER AND/OR OBSTRUCTIONS TO VISIBILITY.

* - THESE STATIONS ARE NOT NWS STATIONS...THUS NOT UNDER NWS
QUALITY CONTROL.  THEY ALSO DO NOT REPORT WEATHER SUCH
AS PRECIPITATION OR FOG.

IAZ001>003-012>014-020>022-031>034-043>046-042200-
   NORTHWEST IOWA

CITY           SKY/WX    TMP DP  RH WIND       PRES   REMARKS
CARROLL *      PTSUNNY   66  54  63 E13G21    30.12R
CHEROKEE *     CLOUDY    68  37  32 E13G20    30.13F
DENISON *      LGT RAIN  61  57  88 NE8       30.11R
LE MARS *      SUNNY     72  36  26 E12G23    30.13F
ORANGE CITY *  SUNNY     70  34  26 SE9G18    30.13F
SHELDON *      SUNNY     72  37  28 E15       30.13S
SIOUX CITY     CLOUDY    66  43  43 E15       30.13F
SPENCER        PTSUNNY   69  37  30 E14       30.15S
STORM LAKE *   SUNNY     66  41  39 E18       30.14F
$$

IAZ055>058-069>071-079>083-090>094-042200-
   SOUTHWEST IOWA

CITY           SKY/WX    TMP DP  RH WIND       PRES   REMARKS
ATLANTIC *     LGT RAIN  64  63  94 NE10      30.09S
AUDUBON *      RAIN      64  59  82 E7        30.11S
CLARINDA *     CLOUDY    68  63  83 N9        30.09S
COUNCIL BLFS * MOSUNNY   66  64  94 NE8G14    30.08S
CRESTON *      CLOUDY    68  61  77 NE9       30.08R
HARLAN  *      CLOUDY    64  64 100 NE9       30.12F
LAMONI         PTSUNNY   74  62  66 E9        30.05F
RED OAK *      LGT RAIN  68  64  88 NE10      30.06F
SHENANDOAH *   CLOUDY    66  64  94 NE13      30.05F
$$

IAZ047>049-059>061-072>074-084-042200-
   CENTRAL IOWA

CITY           SKY/WX    TMP DP  RH WIND       PRES   REMARKS
AMES           LGT RAIN  67  58  72 NE10      30.08F
ANKENY *       LGT RAIN  66  63  88 NE13      30.07R
CHARITON *     SUNNY     73  63  68 E7        30.05F
DES MOINES     LGT RAIN  69  61  75 NE12      30.05F
GRINNELL*      LGT RAIN  70  59  68 NE14      30.07F
KNOXVILLE *    PTSUNNY   72  61  68 NE12      30.04S
MARSHALLTOWN   CLOUDY    68  60  75 NE15      30.07F
PELLA *        CLOUDY    72  64  78 NE7       30.06F
PERRY *        LGT RAIN  64  59  82 NE7       30.09S
$$

IAZ004>006-015-016-023>025-035-036-042200-
   NORTH CENTRAL IOWA

CITY           SKY/WX    TMP DP  RH WIND       PRES   REMARKS
ALGONA *       SUNNY     68  34  28 E13G21    30.14F
CLARION *      MOSUNNY   68  43  40 E18       30.13F
ESTHERVILLE    CLOUDY    70  33  25 E14       30.14F
FORT DODGE *   CLOUDY    64  48  55 NE12      30.14S
MASON CITY     PTSUNNY   69  39  33 NE14      30.16S
FOREST CITY *  SUNNY     66  39  37 NE9       30.15S
IOWA FALLS *     N/A     66  50  55 NE9       30.12F
$$

IAZ007>011-017>019-026>030-037>042-050>054-066-042200-
   NORTHEAST IOWA

CITY           SKY/WX    TMP DP  RH WIND       PRES   REMARKS
CEDAR RAPIDS   PTSUNNY   71  62  73 NE12      30.08F
CHARLES CITY * PTSUNNY   68  43  40 NE9       30.15R
CLINTON *      PTSUNNY   73  61  64 SE7       30.13S
DECORAH *      MOSUNNY   68  41  37 E7        30.13S
DUBUQUE        CLOUDY    74  58  57 N8        30.11F
MONTICELLO *   CLOUDY    72  61  68 SE8       30.10S
OELWEIN *      MOSUNNY   70  55  60 NE9       30.12F
WATERLOO       CLOUDY    69  57  65 NE12      30.11F
$$

IAZ064-065-067-068-078-042200-
   EAST CENTRAL IOWA

CITY           SKY/WX    TMP DP  RH WIND       PRES   REMARKS
DAVENPORT      PTSUNNY   73  60  63 E13       30.10F
IOWA CITY      PTSUNNY   72  62  71 E9        30.09S
MT. PLEASANT * CLOUDY    79  57  47 SE9       30.03F HX  80
MUSCATINE *    SUNNY     75  63  64 NE12G17   30.06F
QUAD CITIES    MOSUNNY   76  61  59 E14       30.07F
$$

IAZ062-063-075>077-085>089-095>099-042200-
   SOUTHEAST IOWA

CITY           SKY/WX    TMP DP  RH WIND       PRES   REMARKS
BURLINGTON     PTSUNNY   78  59  51 SE6       30.04F
FAIRFIELD *    SUNNY     75  63  64 NE13      30.04F
FORT MADISON * MOSUNNY   79  61  53 E6        30.05F HX  80
KEOKUK *       LGT RAIN  73  66  78 NW6       30.03F
OSKALOOSA *    PTSUNNY   73  61  64 NE16      30.05F
CENTERVILLE *  MOSUNNY   75  64  69 CALM      30.06F
OTTUMWA        CLOUDY    77  62  59 NE16      30.02F
WASHINGTON *   SUNNY     75  72  88 NE15      30.05F
$$

ABBREVIATIONS USED IN REMARKS
   TC - TEMPERATURES IN CELSIUS
  WCI - WIND CHILL INDEX
   HX - HEAT INDEX
  VSB - VISIBILITY
$$




USA.gov is the U.S. government's official web portal to all federal, state and local government web resources and services.